TimeCST,TemperatureF,Dew PointF,Humidity,Sea Level PressureIn,VisibilityMPH,Wind Direction,Wind SpeedMPH,Gust SpeedMPH,PrecipitationIn,Events,Conditions,WindDirDegrees,DateUTC
12:13 AM,37.4,35.6,93,30.19,7.0,Calm,Calm,-,N/A,,Overcast,0,2012-11-04 05:13:00
12:33 AM,37.4,35.6,93,30.19,10.0,Calm,Calm,-,N/A,,Overcast,0,2012-11-04 05:33:00
12:54 AM,37.4,35.6,93,30.19,7.0,Calm,Calm,-,N/A,,Overcast,0,2012-11-04 05:54:00
1:13 AM,37.4,35.6,93,30.19,7.0,Calm,Calm,-,N/A,,Overcast,0,2012-11-04 06:13:00
1:33 AM,37.4,35.6,93,30.19,7.0,Calm,Calm,-,N/A,,Overcast,0,2012-11-04 06:33:00
1:14 AM,37.4,35.6,93,30.19,7.0,Calm,Calm,-,N/A,,Overcast,0,2012-11-04 07:14:00
1:33 AM,37.4,35.6,93,30.19,7.0,Calm,Calm,-,N/A,,Overcast,0,2012-11-04 07:33:00
1:53 AM,37.4,35.6,93,30.19,7.0,ENE,3.5,-,N/A,,Overcast,60,2012-11-04 07:53:00
2:13 AM,37.4,35.6,93,30.19,7.0,ENE,3.5,-,N/A,,Overcast,60,2012-11-04 08:13:00
2:33 AM,37.4,35.6,93,30.19,7.0,Calm,Calm,-,N/A,,Overcast,0,2012-11-04 08:33:00
2:53 AM,37.4,35.6,93,30.19,7.0,Calm,Calm,-,N/A,,Overcast,0,2012-11-04 08:53:00
3:13 AM,37.4,35.6,93,30.19,7.0,Calm,Calm,-,N/A,,Overcast,0,2012-11-04 09:13:00
3:34 AM,37.4,35.6,93,30.19,7.0,Calm,Calm,-,N/A,,Overcast,0,2012-11-04 09:34:00
3:53 AM,37.4,35.6,93,30.19,5.0,Calm,Calm,-,N/A,,Overcast,0,2012-11-04 09:53:00
4:13 AM,37.4,35.6,93,30.19,3.0,East,3.5,-,N/A,,Overcast,80,2012-11-04 10:13:00
4:33 AM,37.4,35.6,93,30.18,1.8,Calm,Calm,-,N/A,,Overcast,0,2012-11-04 10:33:00
4:53 AM,37.4,35.6,93,30.18,1.5,Calm,Calm,-,N/A,,Overcast,0,2012-11-04 10:53:00
5:13 AM,37.4,35.6,93,30.19,1.5,Calm,Calm,-,N/A,,Overcast,0,2012-11-04 11:13:00
5:33 AM,37.4,35.6,93,30.18,1.2,East,3.5,-,N/A,,Overcast,90,2012-11-04 11:33:00
5:53 AM,37.4,35.6,93,30.18,1.5,Calm,Calm,-,N/A,,Overcast,0,2012-11-04 11:53:00
6:13 AM,37.4,35.6,93,30.18,2.5,Calm,Calm,-,N/A,,Overcast,0,2012-11-04 12:13:00
6:33 AM,37.4,35.6,93,30.17,2.5,Calm,Calm,-,N/A,,Overcast,0,2012-11-04 12:33:00
6:53 AM,37.4,35.6,93,30.18,0.5,Calm,Calm,-,N/A,Fog,Fog,0,2012-11-04 12:53:00
7:13 AM,37.4,35.6,93,30.18,0.5,Calm,Calm,-,N/A,Fog,Fog,0,2012-11-04 13:13:00
7:34 AM,37.4,35.6,93,30.17,0.2,East,3.5,-,N/A,Fog,Fog,80,2012-11-04 13:34:00
7:53 AM,37.4,35.6,93,30.17,0.2,East,4.6,-,N/A,Fog,Fog,80,2012-11-04 13:53:00
8:14 AM,37.4,37.4,100,30.17,0.2,East,5.8,-,N/A,Fog,Fog,90,2012-11-04 14:14:00
8:33 AM,37.4,37.4,100,30.17,0.5,East,6.9,-,N/A,Fog,Fog,100,2012-11-04 14:33:00
8:53 AM,37.4,37.4,100,30.16,1.2,ESE,5.8,-,N/A,,Overcast,120,2012-11-04 14:53:00
9:13 AM,37.4,37.4,100,30.16,1.5,SE,5.8,-,N/A,,Overcast,130,2012-11-04 15:13:00
9:33 AM,39.2,37.4,93,30.16,3.0,SE,3.5,-,N/A,,Overcast,130,2012-11-04 15:33:00
9:53 AM,39.2,37.4,93,30.16,2.5,SSE,3.5,-,N/A,,Overcast,160,2012-11-04 15:53:00
10:14 AM,39.2,37.4,93,30.15,3.0,SSE,4.6,-,N/A,,Overcast,160,2012-11-04 16:14:00
10:33 AM,39.2,37.4,93,30.16,3.0,SSE,4.6,-,N/A,,Overcast,160,2012-11-04 16:33:00
10:53 AM,39.2,37.4,93,30.15,3.0,Calm,Calm,-,N/A,,Overcast,0,2012-11-04 16:53:00
11:13 AM,39.2,37.4,93,30.16,4.0,South,3.5,-,N/A,,Overcast,180,2012-11-04 17:13:00
11:33 AM,39.2,37.4,93,30.15,4.0,Calm,Calm,-,N/A,,Overcast,0,2012-11-04 17:33:00
11:54 AM,41.0,37.4,87,30.15,5.0,Calm,Calm,-,N/A,,Overcast,0,2012-11-04 17:54:00
12:13 PM,41.0,37.4,87,30.14,7.0,South,3.5,-,N/A,,Overcast,190,2012-11-04 18:13:00
12:33 PM,42.8,35.6,76,30.13,10.0,Calm,Calm,-,N/A,,Overcast,0,2012-11-04 18:33:00
12:54 PM,42.8,35.6,76,30.13,10.0,South,3.5,-,N/A,,Mostly Cloudy,190,2012-11-04 18:54:00
1:13 PM,42.8,35.6,76,30.13,10.0,South,4.6,-,N/A,,Overcast,180,2012-11-04 19:13:00
1:33 PM,42.8,35.6,76,30.12,10.0,SW,5.8,-,N/A,,Overcast,220,2012-11-04 19:33:00
1:53 PM,42.8,35.6,76,30.12,10.0,Calm,Calm,-,N/A,,Overcast,0,2012-11-04 19:53:00
2:13 PM,41.0,37.4,87,30.12,7.0,East,8.1,-,N/A,,Overcast,90,2012-11-04 20:13:00
2:33 PM,39.2,37.4,93,30.12,4.0,ENE,8.1,-,N/A,,Overcast,70,2012-11-04 20:33:00
2:53 PM,39.2,37.4,93,30.12,4.0,East,6.9,-,N/A,,Overcast,90,2012-11-04 20:53:00
3:13 PM,39.2,37.4,93,30.12,5.0,East,5.8,-,N/A,,Overcast,90,2012-11-04 21:13:00
3:33 PM,39.2,37.4,93,30.12,5.0,East,5.8,-,N/A,,Overcast,100,2012-11-04 21:33:00
3:53 PM,39.2,37.4,93,30.12,5.0,East,5.8,-,N/A,,Overcast,90,2012-11-04 21:53:00
4:13 PM,39.2,37.4,93,30.12,5.0,East,6.9,-,N/A,,Overcast,90,2012-11-04 22:13:00
4:33 PM,39.2,37.4,93,30.12,4.0,East,5.8,-,N/A,,Overcast,80,2012-11-04 22:33:00
4:53 PM,39.2,37.4,93,30.12,4.0,East,5.8,-,N/A,,Overcast,80,2012-11-04 22:53:00
5:13 PM,39.2,37.4,93,30.13,2.5,ENE,5.8,-,N/A,,Overcast,70,2012-11-04 23:13:00
5:34 PM,39.2,37.4,93,30.13,4.0,ENE,3.5,-,N/A,,Overcast,60,2012-11-04 23:34:00
5:53 PM,39.2,37.4,93,30.13,4.0,ENE,4.6,-,N/A,,Overcast,60,2012-11-04 23:53:00
6:13 PM,39.2,37.4,93,30.14,4.0,NE,4.6,-,N/A,,Mostly Cloudy,50,2012-11-05 00:13:00
6:34 PM,39.2,37.4,93,30.14,4.0,NE,4.6,-,N/A,,Mostly Cloudy,50,2012-11-05 00:34:00
6:54 PM,39.2,37.4,93,30.15,4.0,NE,5.8,-,N/A,,Overcast,50,2012-11-05 00:54:00
7:14 PM,39.2,37.4,93,30.15,5.0,NE,6.9,-,N/A,,Overcast,50,2012-11-05 01:14:00
7:34 PM,37.4,35.6,93,30.15,5.0,NE,5.8,-,N/A,,Overcast,50,2012-11-05 01:34:00
7:53 PM,37.4,35.6,93,30.14,5.0,NE,5.8,-,N/A,,Overcast,50,2012-11-05 01:53:00
8:13 PM,37.4,35.6,93,30.14,4.0,NE,5.8,-,N/A,,Overcast,50,2012-11-05 02:13:00
8:33 PM,37.4,35.6,93,30.14,5.0,NE,6.9,-,N/A,,Overcast,40,2012-11-05 02:33:00
8:53 PM,37.4,35.6,93,30.15,4.0,NNE,5.8,-,N/A,,Overcast,30,2012-11-05 02:53:00
9:13 PM,37.4,35.6,93,30.15,5.0,NNE,5.8,-,N/A,,Overcast,20,2012-11-05 03:13:00
9:33 PM,37.4,35.6,93,30.15,5.0,NNE,5.8,-,N/A,,Overcast,20,2012-11-05 03:33:00
9:53 PM,37.4,35.6,93,30.15,7.0,North,5.8,-,N/A,,Overcast,10,2012-11-05 03:53:00
10:13 PM,37.4,35.6,93,30.15,7.0,North,5.8,-,N/A,,Overcast,360,2012-11-05 04:13:00
10:34 PM,37.4,35.6,93,30.15,7.0,North,6.9,-,N/A,,Overcast,360,2012-11-05 04:34:00
10:53 PM,37.4,35.6,93,30.15,7.0,North,8.1,-,N/A,,Overcast,360,2012-11-05 04:53:00